Year,Month,Day,Hour,Minute,Value (Times are PST for insolation in W/m^2)
2018,02,26,00,00,0.00
2018,02,26,00,01,0.00
2018,02,26,00,02,0.00
2018,02,26,00,03,0.00
2018,02,26,00,04,0.00
2018,02,26,00,05,0.00
2018,02,26,00,06,0.00
2018,02,26,00,07,0.00
2018,02,26,00,08,0.00
2018,02,26,00,09,0.00
2018,02,26,00,10,0.00
2018,02,26,00,11,0.00
2018,02,26,00,12,0.00
2018,02,26,00,13,0.00
2018,02,26,00,14,0.00
2018,02,26,00,15,0.00
2018,02,26,00,16,0.00
2018,02,26,00,17,0.00
2018,02,26,00,18,0.00
2018,02,26,00,19,0.00
2018,02,26,00,20,0.00
2018,02,26,00,21,0.00
2018,02,26,00,22,0.00
2018,02,26,00,23,0.00
2018,02,26,00,24,0.00
2018,02,26,00,25,0.00
2018,02,26,00,26,0.00
2018,02,26,00,27,0.00
2018,02,26,00,28,0.00
2018,02,26,00,29,0.00
2018,02,26,00,30,0.00
2018,02,26,00,31,0.00
2018,02,26,00,32,0.00
2018,02,26,00,33,0.00
2018,02,26,00,34,0.00
2018,02,26,00,35,0.00
2018,02,26,00,36,0.00
2018,02,26,00,37,0.00
2018,02,26,00,38,0.00
2018,02,26,00,39,0.00
2018,02,26,00,40,0.00
2018,02,26,00,41,0.00
2018,02,26,00,42,0.00
2018,02,26,00,43,0.00
2018,02,26,00,44,0.00
2018,02,26,00,45,0.00
2018,02,26,00,46,0.00
2018,02,26,00,47,0.00
2018,02,26,00,48,0.00
2018,02,26,00,49,0.00
2018,02,26,00,50,0.00
2018,02,26,00,51,0.00
2018,02,26,00,52,0.00
2018,02,26,00,53,0.00
2018,02,26,00,54,0.00
2018,02,26,00,55,0.00
2018,02,26,00,56,0.00
2018,02,26,00,57,0.00
2018,02,26,00,58,0.00
2018,02,26,00,59,0.00
2018,02,26,01,00,0.00
2018,02,26,01,01,0.00
2018,02,26,01,02,0.00
2018,02,26,01,03,0.00
2018,02,26,01,04,0.00
2018,02,26,01,05,0.00
2018,02,26,01,06,0.00
2018,02,26,01,07,0.00
2018,02,26,01,08,0.00
2018,02,26,01,09,0.00
2018,02,26,01,10,0.00
2018,02,26,01,11,0.00
2018,02,26,01,12,0.00
2018,02,26,01,13,0.00
2018,02,26,01,14,0.00
2018,02,26,01,15,0.00
2018,02,26,01,16,0.00
2018,02,26,01,17,0.00
2018,02,26,01,18,0.00
2018,02,26,01,19,0.00
2018,02,26,01,20,0.00
2018,02,26,01,21,0.00
2018,02,26,01,22,0.00
2018,02,26,01,23,0.00
2018,02,26,01,24,0.00
2018,02,26,01,25,0.00
2018,02,26,01,26,0.00
2018,02,26,01,27,0.00
2018,02,26,01,28,0.00
2018,02,26,01,29,0.00
2018,02,26,01,30,0.00
2018,02,26,01,31,0.00
2018,02,26,01,32,0.00
2018,02,26,01,33,0.00
2018,02,26,01,34,0.00
2018,02,26,01,35,0.00
2018,02,26,01,36,0.00
2018,02,26,01,37,0.00
2018,02,26,01,38,0.00
2018,02,26,01,39,0.00
2018,02,26,01,40,0.00
2018,02,26,01,41,0.00
2018,02,26,01,42,0.00
2018,02,26,01,43,0.00
2018,02,26,01,44,0.00
2018,02,26,01,45,0.00
2018,02,26,01,46,0.00
2018,02,26,01,47,0.00
2018,02,26,01,48,0.00
2018,02,26,01,49,0.00
2018,02,26,01,50,0.00
2018,02,26,01,51,0.00
2018,02,26,01,52,0.00
2018,02,26,01,53,0.00
2018,02,26,01,54,0.00
2018,02,26,01,55,0.00
2018,02,26,01,56,0.00
2018,02,26,01,57,0.00
2018,02,26,01,58,0.00
2018,02,26,01,59,0.00
2018,02,26,02,00,0.00
2018,02,26,02,01,0.00
2018,02,26,02,02,0.00
2018,02,26,02,03,0.00
2018,02,26,02,04,0.00
2018,02,26,02,05,0.00
2018,02,26,02,06,0.00
2018,02,26,02,07,0.00
2018,02,26,02,08,0.00
2018,02,26,02,09,0.00
2018,02,26,02,10,0.00
2018,02,26,02,11,0.00
2018,02,26,02,12,0.00
2018,02,26,02,13,0.00
2018,02,26,02,14,0.00
2018,02,26,02,15,0.00
2018,02,26,02,16,0.00
2018,02,26,02,17,0.00
2018,02,26,02,18,0.00
2018,02,26,02,19,0.00
2018,02,26,02,20,0.00
2018,02,26,02,21,0.00
2018,02,26,02,22,0.00
2018,02,26,02,23,0.00
2018,02,26,02,24,0.00
2018,02,26,02,25,0.00
2018,02,26,02,26,0.00
2018,02,26,02,27,0.00
2018,02,26,02,28,0.00
2018,02,26,02,29,0.00
2018,02,26,02,30,0.00
2018,02,26,02,31,0.00
2018,02,26,02,32,0.00
2018,02,26,02,33,0.00
2018,02,26,02,34,0.00
2018,02,26,02,35,0.00
2018,02,26,02,36,0.00
2018,02,26,02,37,0.00
2018,02,26,02,38,0.00
2018,02,26,02,39,0.00
2018,02,26,02,40,0.00
2018,02,26,02,41,0.00
2018,02,26,02,42,0.00
2018,02,26,02,43,0.00
2018,02,26,02,44,0.00
2018,02,26,02,45,0.00
2018,02,26,02,46,0.00
2018,02,26,02,47,0.00
2018,02,26,02,48,0.00
2018,02,26,02,49,0.00
2018,02,26,02,50,0.00
2018,02,26,02,51,0.00
2018,02,26,02,52,0.00
2018,02,26,02,53,0.00
2018,02,26,02,54,0.00
2018,02,26,02,55,0.00
2018,02,26,02,56,0.00
2018,02,26,02,57,0.00
2018,02,26,02,58,0.00
2018,02,26,02,59,0.00
2018,02,26,03,00,0.00
2018,02,26,03,01,0.00
2018,02,26,03,02,0.00
2018,02,26,03,03,0.00
2018,02,26,03,04,0.00
2018,02,26,03,05,0.00
2018,02,26,03,06,0.00
2018,02,26,03,07,0.00
2018,02,26,03,08,0.00
2018,02,26,03,09,0.00
2018,02,26,03,10,0.00
2018,02,26,03,11,0.00
2018,02,26,03,12,0.00
2018,02,26,03,13,0.00
2018,02,26,03,14,0.00
2018,02,26,03,15,0.00
2018,02,26,03,16,0.00
2018,02,26,03,17,0.00
2018,02,26,03,18,0.00
2018,02,26,03,19,0.00
2018,02,26,03,20,0.00
2018,02,26,03,21,0.00
2018,02,26,03,22,0.00
2018,02,26,03,23,0.00
2018,02,26,03,24,0.00
2018,02,26,03,25,0.00
2018,02,26,03,26,0.00
2018,02,26,03,27,0.00
2018,02,26,03,28,0.00
2018,02,26,03,29,0.00
2018,02,26,03,30,0.00
2018,02,26,03,31,0.00
2018,02,26,03,32,0.00
2018,02,26,03,33,0.00
2018,02,26,03,34,0.00
2018,02,26,03,35,0.00
2018,02,26,03,36,0.00
2018,02,26,03,37,0.00
2018,02,26,03,38,0.00
2018,02,26,03,39,0.00
2018,02,26,03,40,0.00
2018,02,26,03,41,0.00
2018,02,26,03,42,0.00
2018,02,26,03,43,0.00
2018,02,26,03,44,0.00
2018,02,26,03,45,0.00
2018,02,26,03,46,0.00
2018,02,26,03,47,0.00
2018,02,26,03,48,0.00
2018,02,26,03,49,0.00
2018,02,26,03,50,0.00
2018,02,26,03,51,0.00
2018,02,26,03,52,0.00
2018,02,26,03,53,0.00
2018,02,26,03,54,0.00
2018,02,26,03,55,0.00
2018,02,26,03,56,0.00
2018,02,26,03,57,0.00
2018,02,26,03,58,0.00
2018,02,26,03,59,0.00
2018,02,26,04,00,0.00
2018,02,26,04,01,0.00
2018,02,26,04,02,0.00
2018,02,26,04,03,0.00
2018,02,26,04,04,0.00
2018,02,26,04,05,0.00
2018,02,26,04,06,0.00
2018,02,26,04,07,0.00
2018,02,26,04,08,0.00
2018,02,26,04,09,0.00
2018,02,26,04,10,0.00
2018,02,26,04,11,0.00
2018,02,26,04,12,0.00
2018,02,26,04,13,0.00
2018,02,26,04,14,0.00
2018,02,26,04,15,0.00
2018,02,26,04,16,0.00
2018,02,26,04,17,0.00
2018,02,26,04,18,0.00
2018,02,26,04,19,0.00
2018,02,26,04,20,0.00
2018,02,26,04,21,0.00
2018,02,26,04,22,0.00
2018,02,26,04,23,0.00
2018,02,26,04,24,0.00
2018,02,26,04,25,0.00
2018,02,26,04,26,0.00
2018,02,26,04,27,0.00
2018,02,26,04,28,0.00
2018,02,26,04,29,0.00
2018,02,26,04,30,0.00
2018,02,26,04,31,0.00
2018,02,26,04,32,0.00
2018,02,26,04,33,0.00
2018,02,26,04,34,0.00
2018,02,26,04,35,0.00
2018,02,26,04,36,0.00
2018,02,26,04,37,0.00
2018,02,26,04,38,0.00
2018,02,26,04,39,0.00
2018,02,26,04,40,0.00
2018,02,26,04,41,0.00
2018,02,26,04,42,0.00
2018,02,26,04,43,0.00
2018,02,26,04,44,0.00
2018,02,26,04,45,0.00
2018,02,26,04,46,0.00
2018,02,26,04,47,0.00
2018,02,26,04,48,0.00
2018,02,26,04,49,0.00
2018,02,26,04,50,0.00
2018,02,26,04,51,0.00
2018,02,26,04,52,0.00
2018,02,26,04,53,0.00
2018,02,26,04,54,0.00
2018,02,26,04,55,0.00
2018,02,26,04,56,0.00
2018,02,26,04,57,0.00
2018,02,26,04,58,0.00
2018,02,26,04,59,0.00
2018,02,26,05,00,0.00
2018,02,26,05,01,0.00
2018,02,26,05,02,0.00
2018,02,26,05,03,0.00
2018,02,26,05,04,0.00
2018,02,26,05,05,0.00
2018,02,26,05,06,0.00
2018,02,26,05,07,0.00
2018,02,26,05,08,0.00
2018,02,26,05,09,0.00
2018,02,26,05,10,0.00
2018,02,26,05,11,0.00
2018,02,26,05,12,0.00
2018,02,26,05,13,0.00
2018,02,26,05,14,0.00
2018,02,26,05,15,0.00
2018,02,26,05,16,0.00
2018,02,26,05,17,0.00
2018,02,26,05,18,0.00
2018,02,26,05,19,0.00
2018,02,26,05,20,0.00
2018,02,26,05,21,0.00
2018,02,26,05,22,0.00
2018,02,26,05,23,0.00
2018,02,26,05,24,0.00
2018,02,26,05,25,0.00
2018,02,26,05,26,0.00
2018,02,26,05,27,0.00
2018,02,26,05,28,0.00
2018,02,26,05,29,0.00
2018,02,26,05,30,0.00
2018,02,26,05,31,0.00
2018,02,26,05,32,0.00
2018,02,26,05,33,0.00
2018,02,26,05,34,0.00
2018,02,26,05,35,0.00
2018,02,26,05,36,0.00
2018,02,26,05,37,0.00
2018,02,26,05,38,0.00
2018,02,26,05,39,0.00
2018,02,26,05,40,0.00
2018,02,26,05,41,0.00
2018,02,26,05,42,0.00
2018,02,26,05,43,0.00
2018,02,26,05,44,0.00
2018,02,26,05,45,0.00
2018,02,26,05,46,0.00
2018,02,26,05,47,0.00
2018,02,26,05,48,0.00
2018,02,26,05,49,0.00
2018,02,26,05,50,0.00
2018,02,26,05,51,0.00
2018,02,26,05,52,0.00
2018,02,26,05,53,0.00
2018,02,26,05,54,0.00
2018,02,26,05,55,0.00
2018,02,26,05,56,0.00
2018,02,26,05,57,0.00
2018,02,26,05,58,0.00
2018,02,26,05,59,0.00
2018,02,26,06,00,0.00
2018,02,26,06,01,0.00
2018,02,26,06,02,0.00
2018,02,26,06,03,0.00
2018,02,26,06,04,0.00
2018,02,26,06,05,0.00
2018,02,26,06,06,0.00
2018,02,26,06,07,0.00
2018,02,26,06,08,0.00
2018,02,26,06,09,0.00
2018,02,26,06,10,0.00
2018,02,26,06,11,0.00
2018,02,26,06,12,0.00
2018,02,26,06,13,0.00
2018,02,26,06,14,0.00
2018,02,26,06,15,0.00
2018,02,26,06,16,0.00
2018,02,26,06,17,0.00
2018,02,26,06,18,0.00
2018,02,26,06,19,0.00
2018,02,26,06,20,0.00
2018,02,26,06,21,0.00
2018,02,26,06,22,0.00
2018,02,26,06,23,0.00
2018,02,26,06,24,0.00
2018,02,26,06,25,0.00
2018,02,26,06,26,0.00
2018,02,26,06,27,0.00
2018,02,26,06,28,0.00
2018,02,26,06,29,0.00
2018,02,26,06,30,0.00
2018,02,26,06,31,0.00
2018,02,26,06,32,0.00
2018,02,26,06,33,0.00
2018,02,26,06,34,0.00
2018,02,26,06,35,0.00
2018,02,26,06,36,0.00
2018,02,26,06,37,0.00
2018,02,26,06,38,0.00
2018,02,26,06,39,0.00
2018,02,26,06,40,0.00
2018,02,26,06,41,0.00
2018,02,26,06,42,0.00
2018,02,26,06,43,0.00
2018,02,26,06,44,0.00
2018,02,26,06,45,0.00
2018,02,26,06,46,0.00
2018,02,26,06,47,0.00
2018,02,26,06,48,0.00
2018,02,26,06,49,0.00
2018,02,26,06,50,0.00
2018,02,26,06,51,0.00
2018,02,26,06,52,0.00
2018,02,26,06,53,0.00
2018,02,26,06,54,0.00
2018,02,26,06,55,0.00
2018,02,26,06,56,0.00
2018,02,26,06,57,0.00
2018,02,26,06,58,0.00
2018,02,26,06,59,0.00
2018,02,26,07,00,0.00
2018,02,26,07,01,0.00
2018,02,26,07,02,0.00
2018,02,26,07,03,0.00
2018,02,26,07,04,0.00
2018,02,26,07,05,0.00
2018,02,26,07,06,0.00
2018,02,26,07,07,0.00
2018,02,26,07,08,0.00
2018,02,26,07,09,0.00
2018,02,26,07,10,0.00
2018,02,26,07,11,0.00
2018,02,26,07,12,0.00
2018,02,26,07,13,0.00
2018,02,26,07,14,0.00
2018,02,26,07,15,5.00
2018,02,26,07,16,5.00
2018,02,26,07,17,5.00
2018,02,26,07,18,5.00
2018,02,26,07,19,5.70
2018,02,26,07,20,7.00
2018,02,26,07,21,7.00
2018,02,26,07,22,7.00
2018,02,26,07,23,7.00
2018,02,26,07,24,8.60
2018,02,26,07,25,9.00
2018,02,26,07,26,9.10
2018,02,26,07,27,11.00
2018,02,26,07,28,11.20
2018,02,26,07,29,12.00
2018,02,26,07,30,12.70
2018,02,26,07,31,15.00
2018,02,26,07,32,16.00
2018,02,26,07,33,17.30
2018,02,26,07,34,18.00
2018,02,26,07,35,18.00
2018,02,26,07,36,18.00
2018,02,26,07,37,19.00
2018,02,26,07,38,19.00
2018,02,26,07,39,19.40
2018,02,26,07,40,21.00
2018,02,26,07,41,21.00
2018,02,26,07,42,22.00
2018,02,26,07,43,23.00
2018,02,26,07,44,24.30
2018,02,26,07,45,25.70
2018,02,26,07,46,26.00
2018,02,26,07,47,27.80
2018,02,26,07,48,30.10
2018,02,26,07,49,32.10
2018,02,26,07,50,33.40
2018,02,26,07,51,35.70
2018,02,26,07,52,37.80
2018,02,26,07,53,40.40
2018,02,26,07,54,44.40
2018,02,26,07,55,46.70
2018,02,26,07,56,47.00
2018,02,26,07,57,46.20
2018,02,26,07,58,46.00
2018,02,26,07,59,42.00
2018,02,26,08,00,42.20
2018,02,26,08,01,44.40
2018,02,26,08,02,46.90
2018,02,26,08,03,49.00
2018,02,26,08,04,49.90
2018,02,26,08,05,52.10
2018,02,26,08,06,53.70
2018,02,26,08,07,54.00
2018,02,26,08,08,55.60
2018,02,26,08,09,57.80
2018,02,26,08,10,60.10
2018,02,26,08,11,63.30
2018,02,26,08,12,65.40
2018,02,26,08,13,67.00
2018,02,26,08,14,66.20
2018,02,26,08,15,64.00
2018,02,26,08,16,62.40
2018,02,26,08,17,62.00
2018,02,26,08,18,60.50
2018,02,26,08,19,61.60
2018,02,26,08,20,64.70
2018,02,26,08,21,69.00
2018,02,26,08,22,74.70
2018,02,26,08,23,82.10
2018,02,26,08,24,95.70
2018,02,26,08,25,100.10
2018,02,26,08,26,97.40
2018,02,26,08,27,98.00
2018,02,26,08,28,100.60
2018,02,26,08,29,100.50
2018,02,26,08,30,100.00
2018,02,26,08,31,101.80
2018,02,26,08,32,106.50
2018,02,26,08,33,126.30
2018,02,26,08,34,145.60
2018,02,26,08,35,179.80
2018,02,26,08,36,153.60
2018,02,26,08,37,125.40
2018,02,26,08,38,114.70
2018,02,26,08,39,114.70
2018,02,26,08,40,110.50
2018,02,26,08,41,109.00
2018,02,26,08,42,94.80
2018,02,26,08,43,86.30
2018,02,26,08,44,85.70
2018,02,26,08,45,84.10
2018,02,26,08,46,88.00
2018,02,26,08,47,89.90
2018,02,26,08,48,101.90
2018,02,26,08,49,96.30
2018,02,26,08,50,81.70
2018,02,26,08,51,81.00
2018,02,26,08,52,92.40
2018,02,26,08,53,135.90
2018,02,26,08,54,140.70
2018,02,26,08,55,213.60
2018,02,26,08,56,142.90
2018,02,26,08,57,126.70
2018,02,26,08,58,134.90
2018,02,26,08,59,156.40
2018,02,26,09,00,195.30
2018,02,26,09,01,216.70
2018,02,26,09,02,220.20
2018,02,26,09,03,202.30
2018,02,26,09,04,223.70
2018,02,26,09,05,229.00
2018,02,26,09,06,233.30
2018,02,26,09,07,223.70
2018,02,26,09,08,160.90
2018,02,26,09,09,151.60
2018,02,26,09,10,176.90
2018,02,26,09,11,229.70
2018,02,26,09,12,261.50
2018,02,26,09,13,282.10
2018,02,26,09,14,298.00
2018,02,26,09,15,286.20
2018,02,26,09,16,288.10
2018,02,26,09,17,318.90
2018,02,26,09,18,270.90
2018,02,26,09,19,251.70
2018,02,26,09,20,227.50
2018,02,26,09,21,235.60
2018,02,26,09,22,244.60
2018,02,26,09,23,227.80
2018,02,26,09,24,203.40
2018,02,26,09,25,243.20
2018,02,26,09,26,205.00
2018,02,26,09,27,189.90
2018,02,26,09,28,227.10
2018,02,26,09,29,311.10
2018,02,26,09,30,338.30
2018,02,26,09,31,373.90
2018,02,26,09,32,366.90
2018,02,26,09,33,355.00
2018,02,26,09,34,248.60
2018,02,26,09,35,165.30
2018,02,26,09,36,148.20
2018,02,26,09,37,154.90
2018,02,26,09,38,176.10
2018,02,26,09,39,208.20
2018,02,26,09,40,208.20
2018,02,26,09,41,266.80
2018,02,26,09,42,289.30
2018,02,26,09,43,322.70
2018,02,26,09,44,330.00
2018,02,26,09,45,339.40
2018,02,26,09,46,347.10
2018,02,26,09,47,348.00
2018,02,26,09,48,343.60
2018,02,26,09,49,343.40
2018,02,26,09,50,326.60
2018,02,26,09,51,332.40
2018,02,26,09,52,320.00
2018,02,26,09,53,318.40
2018,02,26,09,54,315.50
2018,02,26,09,55,315.60
2018,02,26,09,56,322.00
2018,02,26,09,57,312.40
2018,02,26,09,58,274.60
2018,02,26,09,59,193.90
2018,02,26,10,00,183.80
2018,02,26,10,01,210.70
2018,02,26,10,02,249.60
2018,02,26,10,03,191.00
2018,02,26,10,04,173.50
2018,02,26,10,05,205.80
2018,02,26,10,06,243.00
2018,02,26,10,07,319.00
2018,02,26,10,08,353.30
2018,02,26,10,09,307.60
2018,02,26,10,10,295.20
2018,02,26,10,11,249.20
2018,02,26,10,12,239.40
2018,02,26,10,13,281.40
2018,02,26,10,14,279.60
2018,02,26,10,15,307.60
2018,02,26,10,16,340.10
2018,02,26,10,17,340.10
2018,02,26,10,18,342.30
2018,02,26,10,19,344.50
2018,02,26,10,20,345.80
2018,02,26,10,21,347.90
2018,02,26,10,22,352.00
2018,02,26,10,23,353.00
2018,02,26,10,24,360.10
2018,02,26,10,25,366.30
2018,02,26,10,26,367.30
2018,02,26,10,27,375.50
2018,02,26,10,28,397.20
2018,02,26,10,29,407.70
2018,02,26,10,30,378.10
2018,02,26,10,31,411.80
2018,02,26,10,32,423.80
2018,02,26,10,33,344.30
2018,02,26,10,34,403.00
2018,02,26,10,35,398.60
2018,02,26,10,36,399.00
2018,02,26,10,37,387.00
2018,02,26,10,38,375.00
2018,02,26,10,39,386.30
2018,02,26,10,40,405.00
2018,02,26,10,41,409.50
2018,02,26,10,42,410.20
2018,02,26,10,43,417.10
2018,02,26,10,44,412.70
2018,02,26,10,45,368.30
2018,02,26,10,46,425.80
2018,02,26,10,47,442.70
2018,02,26,10,48,443.50
2018,02,26,10,49,436.40
2018,02,26,10,50,442.90
2018,02,26,10,51,450.00
2018,02,26,10,52,445.30
2018,02,26,10,53,381.10
2018,02,26,10,54,364.30
2018,02,26,10,55,368.50
2018,02,26,10,56,424.70
2018,02,26,10,57,432.40
2018,02,26,10,58,479.20
2018,02,26,10,59,482.00
2018,02,26,11,00,482.50
2018,02,26,11,01,483.00
2018,02,26,11,02,486.80
2018,02,26,11,03,494.60
2018,02,26,11,04,497.00
2018,02,26,11,05,497.00
2018,02,26,11,06,165.70
2018,02,26,11,07,152.60
2018,02,26,11,08,162.00
2018,02,26,11,09,173.30
2018,02,26,11,10,200.00
2018,02,26,11,11,200.00
2018,02,26,11,12,381.70
2018,02,26,11,13,529.50
2018,02,26,11,14,538.40
2018,02,26,11,15,555.70
2018,02,26,11,16,575.00
2018,02,26,11,17,568.00
2018,02,26,11,18,512.00
2018,02,26,11,19,497.10
2018,02,26,11,20,445.00
2018,02,26,11,21,493.10
2018,02,26,11,22,574.10
2018,02,26,11,23,574.10
2018,02,26,11,24,575.00
2018,02,26,11,25,576.50
2018,02,26,11,26,577.00
2018,02,26,11,27,575.20
2018,02,26,11,28,583.90
2018,02,26,11,29,592.00
2018,02,26,11,30,598.00
2018,02,26,11,31,598.00
2018,02,26,11,32,510.70
2018,02,26,11,33,371.00
2018,02,26,11,34,488.40
2018,02,26,11,35,589.00
2018,02,26,11,36,589.00
2018,02,26,11,37,579.20
2018,02,26,11,38,570.80
2018,02,26,11,39,570.90
2018,02,26,11,40,572.10
2018,02,26,11,41,588.20
2018,02,26,11,42,603.00
2018,02,26,11,43,486.10
2018,02,26,11,44,334.80
2018,02,26,11,45,300.60
2018,02,26,11,46,293.50
2018,02,26,11,47,372.00
2018,02,26,11,48,392.00
2018,02,26,11,49,571.60
2018,02,26,11,50,569.60
2018,02,26,11,51,264.10
2018,02,26,11,52,265.40
2018,02,26,11,53,267.00
2018,02,26,11,54,402.30
2018,02,26,11,55,595.10
2018,02,26,11,56,578.20
2018,02,26,11,57,568.00
2018,02,26,11,58,568.00
2018,02,26,11,59,519.10
2018,02,26,12,00,476.90
2018,02,26,12,01,473.70
2018,02,26,12,02,544.60
2018,02,26,12,03,554.00
2018,02,26,12,04,554.00
2018,02,26,12,05,440.70
2018,02,26,12,06,276.00
2018,02,26,12,07,417.70
2018,02,26,12,08,531.00
2018,02,26,12,09,507.30
2018,02,26,12,10,497.40
2018,02,26,12,11,497.00
2018,02,26,12,12,497.30
2018,02,26,12,13,501.40
2018,02,26,12,14,504.90
2018,02,26,12,15,508.60
2018,02,26,12,16,516.50
2018,02,26,12,17,522.60
2018,02,26,12,18,514.00
2018,02,26,12,19,507.50
2018,02,26,12,20,512.70
2018,02,26,12,21,483.20
2018,02,26,12,22,487.60
2018,02,26,12,23,518.50
2018,02,26,12,24,512.30
2018,02,26,12,25,495.20
2018,02,26,12,26,487.20
2018,02,26,12,27,481.00
2018,02,26,12,28,475.60
2018,02,26,12,29,474.10
2018,02,26,12,30,475.00
2018,02,26,12,31,477.20
2018,02,26,12,32,479.60
2018,02,26,12,33,475.60
2018,02,26,12,34,477.70
2018,02,26,12,35,475.10
2018,02,26,12,36,476.00
2018,02,26,12,37,476.00
2018,02,26,12,38,475.60
2018,02,26,12,39,473.10
2018,02,26,12,40,472.10
2018,02,26,12,41,473.00
2018,02,26,12,42,469.30
2018,02,26,12,43,466.40
2018,02,26,12,44,467.80
2018,02,26,12,45,469.30
2018,02,26,12,46,472.80
2018,02,26,12,47,470.30
2018,02,26,12,48,467.40
2018,02,26,12,49,465.20
2018,02,26,12,50,464.00
2018,02,26,12,51,465.10
2018,02,26,12,52,466.00
2018,02,26,12,53,466.00
2018,02,26,12,54,466.00
2018,02,26,12,55,464.10
2018,02,26,12,56,462.00
2018,02,26,12,57,462.00
2018,02,26,12,58,462.40
2018,02,26,12,59,463.40
2018,02,26,13,00,461.60
2018,02,26,13,01,461.50
2018,02,26,13,02,461.40
2018,02,26,13,03,461.00
2018,02,26,13,04,461.00
2018,02,26,13,05,461.00
2018,02,26,13,06,461.00
2018,02,26,13,07,459.00
2018,02,26,13,08,459.00
2018,02,26,13,09,458.60
2018,02,26,13,10,457.00
2018,02,26,13,11,457.00
2018,02,26,13,12,456.00
2018,02,26,13,13,455.00
2018,02,26,13,14,455.00
2018,02,26,13,15,454.30
2018,02,26,13,16,454.80
2018,02,26,13,17,455.00
2018,02,26,13,18,454.00
2018,02,26,13,19,454.00
2018,02,26,13,20,453.60
2018,02,26,13,21,452.00
2018,02,26,13,22,452.00
2018,02,26,13,23,451.00
2018,02,26,13,24,450.00
2018,02,26,13,25,450.00
2018,02,26,13,26,450.00
2018,02,26,13,27,448.40
2018,02,26,13,28,448.00
2018,02,26,13,29,447.90
2018,02,26,13,30,446.00
2018,02,26,13,31,445.80
2018,02,26,13,32,445.00
2018,02,26,13,33,444.30
2018,02,26,13,34,444.00
2018,02,26,13,35,443.90
2018,02,26,13,36,443.00
2018,02,26,13,37,441.60
2018,02,26,13,38,439.40
2018,02,26,13,39,439.00
2018,02,26,13,40,438.00
2018,02,26,13,41,438.00
2018,02,26,13,42,437.60
2018,02,26,13,43,436.00
2018,02,26,13,44,435.30
2018,02,26,13,45,433.00
2018,02,26,13,46,432.00
2018,02,26,13,47,431.40
2018,02,26,13,48,431.00
2018,02,26,13,49,429.40
2018,02,26,13,50,427.20
2018,02,26,13,51,426.90
2018,02,26,13,52,425.00
2018,02,26,13,53,424.80
2018,02,26,13,54,424.00
2018,02,26,13,55,423.30
2018,02,26,13,56,421.00
2018,02,26,13,57,420.00
2018,02,26,13,58,420.00
2018,02,26,13,59,417.80
2018,02,26,14,00,417.00
2018,02,26,14,01,415.20
2018,02,26,14,02,412.90
2018,02,26,14,03,411.00
2018,02,26,14,04,411.00
2018,02,26,14,05,410.70
2018,02,26,14,06,409.20
2018,02,26,14,07,408.00
2018,02,26,14,08,405.80
2018,02,26,14,09,405.30
2018,02,26,14,10,404.50
2018,02,26,14,11,403.20
2018,02,26,14,12,403.00
2018,02,26,14,13,401.00
2018,02,26,14,14,399.00
2018,02,26,14,15,398.60
2018,02,26,14,16,396.70
2018,02,26,14,17,395.30
2018,02,26,14,18,394.00
2018,02,26,14,19,392.90
2018,02,26,14,20,390.70
2018,02,26,14,21,388.60
2018,02,26,14,22,387.20
2018,02,26,14,23,387.00
2018,02,26,14,24,386.70
2018,02,26,14,25,383.30
2018,02,26,14,26,384.10
2018,02,26,14,27,380.70
2018,02,26,14,28,379.20
2018,02,26,14,29,378.00
2018,02,26,14,30,378.00
2018,02,26,14,31,376.70
2018,02,26,14,32,374.50
2018,02,26,14,33,373.20
2018,02,26,14,34,371.20
2018,02,26,14,35,369.10
2018,02,26,14,36,369.00
2018,02,26,14,37,368.30
2018,02,26,14,38,366.00
2018,02,26,14,39,365.30
2018,02,26,14,40,364.00
2018,02,26,14,41,364.00
2018,02,26,14,42,361.50
2018,02,26,14,43,359.30
2018,02,26,14,44,359.00
2018,02,26,14,45,359.00
2018,02,26,14,46,354.80
2018,02,26,14,47,348.60
2018,02,26,14,48,331.20
2018,02,26,14,49,342.70
2018,02,26,14,50,350.00
2018,02,26,14,51,348.10
2018,02,26,14,52,346.00
2018,02,26,14,53,346.00
2018,02,26,14,54,346.00
2018,02,26,14,55,343.60
2018,02,26,14,56,343.00
2018,02,26,14,57,338.90
2018,02,26,14,58,337.70
2018,02,26,14,59,336.00
2018,02,26,15,00,334.70
2018,02,26,15,01,331.20
2018,02,26,15,02,330.00
2018,02,26,15,03,327.20
2018,02,26,15,04,325.00
2018,02,26,15,05,325.00
2018,02,26,15,06,326.60
2018,02,26,15,07,327.00
2018,02,26,15,08,324.00
2018,02,26,15,09,300.10
2018,02,26,15,10,318.00
2018,02,26,15,11,317.10
2018,02,26,15,12,315.00
2018,02,26,15,13,314.00
2018,02,26,15,14,311.90
2018,02,26,15,15,311.00
2018,02,26,15,16,311.00
2018,02,26,15,17,311.00
2018,02,26,15,18,309.20
2018,02,26,15,19,306.60
2018,02,26,15,20,290.40
2018,02,26,15,21,303.60
2018,02,26,15,22,301.70
2018,02,26,15,23,301.00
2018,02,26,15,24,299.10
2018,02,26,15,25,295.90
2018,02,26,15,26,294.40
2018,02,26,15,27,292.50
2018,02,26,15,28,290.40
2018,02,26,15,29,287.30
2018,02,26,15,30,289.90
2018,02,26,15,31,290.30
2018,02,26,15,32,292.40
2018,02,26,15,33,294.30
2018,02,26,15,34,294.60
2018,02,26,15,35,294.00
2018,02,26,15,36,294.60
2018,02,26,15,37,297.50
2018,02,26,15,38,301.10
2018,02,26,15,39,305.30
2018,02,26,15,40,310.40
2018,02,26,15,41,311.10
2018,02,26,15,42,315.10
2018,02,26,15,43,316.00
2018,02,26,15,44,316.00
2018,02,26,15,45,316.80
2018,02,26,15,46,319.00
2018,02,26,15,47,318.90
2018,02,26,15,48,318.00
2018,02,26,15,49,318.00
2018,02,26,15,50,319.60
2018,02,26,15,51,318.20
2018,02,26,15,52,320.10
2018,02,26,15,53,312.90
2018,02,26,15,54,270.60
2018,02,26,15,55,313.70
2018,02,26,15,56,250.30
2018,02,26,15,57,188.00
2018,02,26,15,58,198.00
2018,02,26,15,59,178.70
2018,02,26,16,00,157.60
2018,02,26,16,01,153.40
2018,02,26,16,02,157.60
2018,02,26,16,03,175.60
2018,02,26,16,04,174.60
2018,02,26,16,05,189.20
2018,02,26,16,06,160.00
2018,02,26,16,07,143.60
2018,02,26,16,08,141.70
2018,02,26,16,09,137.00
2018,02,26,16,10,140.30
2018,02,26,16,11,164.20
2018,02,26,16,12,139.40
2018,02,26,16,13,124.00
2018,02,26,16,14,123.40
2018,02,26,16,15,127.50
2018,02,26,16,16,125.70
2018,02,26,16,17,141.60
2018,02,26,16,18,156.60
2018,02,26,16,19,123.60
2018,02,26,16,20,117.80
2018,02,26,16,21,112.90
2018,02,26,16,22,108.20
2018,02,26,16,23,105.40
2018,02,26,16,24,104.10
2018,02,26,16,25,102.10
2018,02,26,16,26,101.70
2018,02,26,16,27,100.00
2018,02,26,16,28,100.00
2018,02,26,16,29,106.50
2018,02,26,16,30,112.60
2018,02,26,16,31,116.80
2018,02,26,16,32,121.00
2018,02,26,16,33,117.00
2018,02,26,16,34,117.60
2018,02,26,16,35,113.60
2018,02,26,16,36,105.10
2018,02,26,16,37,105.60
2018,02,26,16,38,95.80
2018,02,26,16,39,88.60
2018,02,26,16,40,89.30
2018,02,26,16,41,85.60
2018,02,26,16,42,78.00
2018,02,26,16,43,71.50
2018,02,26,16,44,72.80
2018,02,26,16,45,69.90
2018,02,26,16,46,63.70
2018,02,26,16,47,60.10
2018,02,26,16,48,59.70
2018,02,26,16,49,58.00
2018,02,26,16,50,57.40
2018,02,26,16,51,56.00
2018,02,26,16,52,56.00
2018,02,26,16,53,56.00
2018,02,26,16,54,56.00
2018,02,26,16,55,54.60
2018,02,26,16,56,54.00
2018,02,26,16,57,54.00
2018,02,26,16,58,53.00
2018,02,26,16,59,53.00
2018,02,26,17,00,52.10
2018,02,26,17,01,48.40
2018,02,26,17,02,46.60
2018,02,26,17,03,44.10
2018,02,26,17,04,40.30
2018,02,26,17,05,36.50
2018,02,26,17,06,33.50
2018,02,26,17,07,34.60
2018,02,26,17,08,35.00
2018,02,26,17,09,37.00
2018,02,26,17,10,39.10
2018,02,26,17,11,40.40
2018,02,26,17,12,42.00
2018,02,26,17,13,42.80
2018,02,26,17,14,44.00
2018,02,26,17,15,44.00
2018,02,26,17,16,44.00
2018,02,26,17,17,42.50